Regional Weather Roundup
Issued by NWS

Home | Current Version | Previous Version | Text Only | Print | Product List | Glossary Off
Versions: 1 2 3 4 5 6 7 8 9 10 11 12 13 14 15 16 17 18 19 20 21 22 23 24 25 26 27 28 29 30 31 32 33 34 35 36 37 38 39 40 41 42 43 44 45 46 47 48 49 50

000
ASUS43 KOAX 060402
RWRNE

WEATHER ROUNDUP FOR NEBRASKA
NATIONAL WEATHER SERVICE OMAHA NE
1000 PM CST THU MAR 05 2015

NOTES: SATELLITE DATA IS BEING USED TO AUGMENT CLOUD COVER ABOVE
       12000 FEET.
       "FAIR" INDICATES FEW OR NO CLOUDS BELOW 12,000 FEET WITH NO
       SIGNIFICANT WEATHER AND/OR OBSTRUCTIONS TO VISIBILITY.

  * THESE STATIONS DO NOT REPORT WEATHER SUCH AS RAIN...SNOW OR FOG.

NEZ001>004-019>022-054>056-060500-
NEBRASKA PANHANDLE

CITY           SKY/WX    TMP DP  RH WIND       PRES   REMARKS
SCOTTSBLUFF    CLEAR     28  19  69 NW5       30.23R WCI  23
ALLIANCE       CLEAR     20  14  77 W6        30.20R WCI  12
CHADRON        CLEAR     31  20  63 W5        30.19R WCI  26
SIDNEY         CLEAR     28  18  66 NW9       30.24R WCI  19
$$

NEZ057>060-069>072-079>082-060500-
SOUTHWEST NEBRASKA

CITY           SKY/WX    TMP DP  RH WIND       PRES   REMARKS
NORTH PLATTE   CLEAR     23  11  60 W5        30.23R WCI  17
IMPERIAL         N/A     33  14  45 W12       30.25R WCI  24
MCCOOK         CLEAR     32  16  51 SW10      30.24S WCI  24
$$

NEZ005>010-023>029-035>040-094-060500-
NORTH CENTRAL NEBRASKA

CITY           SKY/WX    TMP DP  RH WIND       PRES   REMARKS
VALENTINE      CLEAR     31  20  63 W10       30.16S WCI  22
AINSWORTH      CLEAR     26  13  59 W10       30.16S WCI  15
BROKEN BOW     CLEAR     29  10  45 SW5       30.19S WCI  24
ORD            CLEAR     22   7  52 E3        30.20S
$$

NEZ041-046>049-061>064-073>077-083>087-060500-
SOUTH CENTRAL NEBRASKA

CITY           SKY/WX    TMP DP  RH WIND       PRES   REMARKS
GRAND ISLAND   CLEAR     30   9  41 S13       30.24F WCI  20
HASTINGS       CLEAR     29   6  38 S8        30.24F WCI  21
HEBRON         CLEAR     30   8  38 S12       30.30F WCI  21
KEARNEY *      CLEAR     30   7  37 S12       30.22F WCI  21
YORK           PTCLDY    27   9  46 S10       30.27F WCI  17
$$

NEZ011>018-030>034-042>045-060500-
NORTHEAST NEBRASKA

CITY           SKY/WX    TMP DP  RH WIND       PRES   REMARKS
NORFOLK        CLOUDY    30   8  39 S17       30.23S WCI  18
BLAIR          PTCLDY    26   7  44 S15G21    30.31F WCI  14
COLUMBUS *     PTCLDY    28   7  40 S10       30.28F WCI  19
FREMONT        PTCLDY    27   9  47 SE14G21   30.31S WCI  16
TEKAMAH        CLEAR     22   8  55 SE13      30.33F WCI  10
$$

NEZ050>053-065>068-078-088>093-060500-
SOUTHEAST NEBRASKA

CITY           SKY/WX    TMP DP  RH WIND       PRES   REMARKS
LINCOLN        MOCLDY    27  10  49 S13       30.34F WCI  16
OMAHA EPPLEY   CLEAR     25   7  46 S12       30.37F WCI  14
FALLS CITY     CLEAR     20   7  57 SE9       30.41F WCI   9
$$

NEZ044-045-051>053-067-060500-
OMAHA AREA

CITY           SKY/WX    TMP DP  RH WIND       PRES   REMARKS
OMAHA EPPLEY   CLEAR     25   7  46 S12       30.37F WCI  14
BLAIR          PTCLDY    26   7  44 S15G21    30.31F WCI  14
FREMONT        PTCLDY    27   9  47 SE14G21   30.31S WCI  16
OFFUTT AFB     PTCLDY    21   7  55 SE9       30.36F WCI  10
$$


USA.gov is the U.S. government's official web portal to all federal, state and local government web resources and services.